[[{"header":{"parameterUnit":"m.s-1","parameterCategory":1,"la1":30.2991,"la2":30.254,"lo1":-89.0895,"lo2":-89.0444,"dy":0.0017,"dx":0.0017,"nx":28,"ny":28,"refTime":"2025-06-10T03:00:00:Z","depth":0,"parameterNumber":2,"parameterNumberName":"U-component_of_WINDS"},"data":[0,0,0,0,0,0,0,0,0,0,0,0,0,0,0,0,0,0,0,0,0,0,0,0,0,0,0,0,0,0,0,0,0,0,0,0,0,0,0,0,0,0,0,0,0,0,0,0,0,0,0,0,0,0,0,0,0,0,4.8716,4.8719,0,4.899,4.8993,4.8996,4.8967,4.8962,4.8958,4.8954,4.9237,4.9248,4.926,0,0,0,0,0,0,0,0,0,0,0,0,0,4.8166,4.8176,4.8716,4.8719,4.8723,4.899,4.8994,4.8997,4.8967,4.8962,4.8957,4.8952,4.9233,4.9247,4.9261,0,0,0,0,0,0,0,0,0,0,0,0,0,4.8419,4.8179,4.8715,4.874,4.8745,4.8989,4.8994,4.8998,4.8968,4.8962,4.8955,4.8949,4.9229,4.9246,4.9263,4.9501,0,0,4.9316,4.9323,0,0,0,0,0,0,0,0,4.8405,4.8439,4.8733,4.8739,4.8745,4.8937,4.8903,4.9167,4.897,4.8884,4.8954,4.8946,4.9143,4.9167,4.9233,4.9514,4.9526,4.9317,4.9328,4.9336,4.934,0,0,0,0,0,0,0,4.8387,4.8427,4.8824,4.8737,4.8744,4.8737,4.8766,4.8953,4.9047,4.8891,4.8889,4.8922,4.9145,4.9216,4.9239,4.953,4.9317,4.9332,4.9343,4.935,5.0017,5.0024,0,0,0,0,0,0,4.8363,4.8413,4.8816,4.8833,4.8555,4.8752,4.8784,4.8882,4.9044,4.9063,4.8927,4.8919,4.919,4.9219,4.9249,4.9536,4.9335,4.9352,4.9362,5.001,5.0018,5.0026,0,0,0,0,0,0,4.8352,4.84,4.8805,4.8622,4.8673,4.8769,4.8879,4.8891,4.8962,4.9072,4.9089,4.8983,4.9186,4.9225,4.9437,4.9545,4.936,4.9375,5.0001,5.0012,5.0022,5.0113,0,0,0,0,0,0,4.8336,4.8396,4.8488,4.8625,4.8683,4.8989,4.8885,4.8901,4.8992,4.8985,4.9129,4.9146,4.9183,4.9412,4.9455,4.9566,4.9389,4.9992,5.0006,5.0019,5.0101,5.0126,5.0147,0,0,0,0,0,4.8317,4.8504,4.8492,4.8541,4.88,4.8995,4.9029,4.9067,4.9001,4.9094,4.9163,4.9142,4.9526,4.9434,4.9482,4.96,4.9985,5.0002,5.0018,5.0091,5.0121,5.0147,0,0,0,0,0,0,4.8379,4.8522,4.8511,4.8748,4.886,4.899,4.9108,4.9099,4.9232,4.922,4.9262,4.9295,4.9509,4.9576,4.947,4.9837,4.9747,4.9774,4.9786,4.9816,4.9838,4.9817,4.9403,0,0,0,0,0,4.842,4.8566,4.8684,4.8881,4.8937,4.9013,4.91,4.9119,4.9237,4.9284,4.937,4.9485,4.9631,4.9727,4.9868,5.011,5.014,5.0215,5.0238,5.0256,5.0279,5.0409,5.0443,5.008,5.008,5.008,0,0,4.8507,4.8603,4.8693,4.8896,4.8985,4.9135,4.9053,4.9217,4.9328,4.9309,4.9514,4.9581,4.9712,4.994,5.0044,5.0002,5.0386,5.0277,5.0291,5.0304,5.043,5.0464,5.0494,5.0091,5.0089,5.0087,0,0,4.8741,4.883,4.9002,4.9092,4.9226,4.9274,4.9316,4.9447,4.949,4.9696,4.9684,4.9817,5.007,5.0162,5.0243,5.0508,5.0492,5.0553,5.0673,5.08,5.0828,5.0854,5.0946,5.0979,5.0575,5.0575,5.0575,0,4.8833,4.9058,4.9093,4.9257,4.9345,4.9333,4.9507,4.9593,4.9767,4.9828,4.9778,5.0091,5.0179,5.0426,5.049,5.0557,5.0604,5.0537,5.0821,5.0847,5.0872,5.096,5.0995,5.0581,5.0581,5.058,5.0579,0,4.9162,4.9319,4.9442,4.9608,4.971,4.9879,4.9939,5.0038,5.0047,5.0101,5.0309,5.0413,5.0574,5.0634,5.0646,5.0883,5.0852,5.0811,5.0721,5.0912,5.0996,5.103,5.059,5.0588,5.0586,5.0585,0,0,4.9447,4.9627,4.9671,4.9745,4.989,5.0011,5.0178,5.0333,5.0417,5.0536,5.0676,5.0888,5.0849,5.094,5.0962,5.1073,5.1273,5.1018,5.1022,5.1061,5.1538,5.1567,5.1606,5.1263,5.127,5.1275,5.1526,0,4.9695,4.9989,5.0023,5.0285,5.0429,5.0417,5.0561,5.0666,5.0719,5.0848,5.0907,5.1056,5.0995,5.1049,5.1158,5.1226,5.137,5.1208,5.1393,5.1399,5.136,5.1651,5.1683,5.1915,5.156,5.1565,5.1569,0,5.0025,5.015,5.0426,5.0547,5.0609,5.0739,5.0881,5.1005,5.1122,5.1153,5.1252,5.1259,5.143,5.1332,5.1567,5.1456,5.1534,5.1578,5.1588,5.1606,5.1496,5.1676,5.1991,5.2025,5.1622,5.1618,5.1614,0,5.0202,5.0441,5.0635,5.0699,5.0846,5.0937,5.1003,5.1113,5.1203,5.1328,5.1386,5.153,5.1609,5.1719,5.1764,5.1689,5.1996,5.1903,5.2025,5.2024,5.2091,5.2086,5.2421,5.2142,5.2142,5.2141,5.214,0,5.0475,5.0644,5.0717,5.0837,5.1024,5.1061,5.1246,5.1307,5.1405,5.1536,5.1535,5.1657,5.1709,5.184,5.1876,5.2063,5.21,5.2128,5.2136,5.2129,5.2125,5.218,5.2165,5.215,5.2148,5.2146,5.2145,0,5.0706,5.0762,5.0973,5.1093,5.1127,5.126,5.1363,5.1479,5.1529,5.1694,5.1735,5.1815,5.1968,5.2023,5.221,5.2234,5.2451,5.2446,5.2412,5.2413,5.2532,5.252,5.2914,5.2967,5.2654,5.2656,5.2659,0,5.0877,5.1006,5.1139,5.1225,5.1294,5.1434,5.1524,5.1565,5.1659,5.1799,5.1897,5.2049,5.2173,5.2419,5.2493,5.2635,5.2633,5.2761,5.2654,5.2641,5.2633,5.2624,5.2636,5.2781,5.2784,5.2787,5.2789,0,5.1173,5.1193,5.1323,5.1462,5.157,5.1682,5.179,5.1862,5.1917,5.2023,5.2179,5.2275,5.2464,5.2614,5.2759,5.2826,5.2817,5.2821,5.2857,5.2851,5.2825,5.2838,5.2465,5.2812,5.281,5.2808,5.2807,5.2806,5.1379,5.1491,5.1601,5.1745,5.183,5.1931,5.2044,5.2106,5.2236,5.2392,5.2408,5.2575,5.2685,5.2879,5.2952,5.3083,5.3048,5.31,5.3113,5.3125,5.3133,5.2804,5.311,5.3109,5.3108,5.3108,5.3108,0,5.1673,5.1742,5.1874,5.2024,5.2137,5.2116,5.2234,5.233,5.2476,5.2579,5.27,5.2877,5.3022,5.3106,5.325,5.3339,5.3338,5.3375,5.3369,5.3384,5.3157,5.3111,5.3373,5.3373,5.3373,5.3373,5.3373,5.3373,5.184,5.2028,5.2061,5.229,5.2358,5.2521,5.2589,5.2681,5.2763,5.296,5.308,5.3133,5.3228,5.3378,5.351,5.3531,5.3583,5.3624,5.3642,5.3428,5.3401,5.3375,5.3331,5.3636,5.3636,5.3858,5.386,5.3861]},{"header":{"parameterUnit":"m.s-1","parameterCategory":1,"la1":30.2991,"la2":30.254,"lo1":-89.0895,"lo2":-89.0444,"dy":0.0017,"dx":0.0017,"nx":28,"ny":28,"refTime":"2025-06-10T03:00:00:Z","depth":0,"parameterNumber":3,"parameterNumberName":"V-component_of_WINDS"},"data":[0,0,0,0,0,0,0,0,0,0,0,0,0,0,0,0,0,0,0,0,0,0,0,0,0,0,0,0,0,0,0,0,0,0,0,0,0,0,0,0,0,0,0,0,0,0,0,0,0,0,0,0,0,0,0,0,0,0,2.5106,2.5109,0,2.5315,2.5317,2.532,2.5328,2.5326,2.5323,2.5321,2.5537,2.5545,2.5553,0,0,0,0,0,0,0,0,0,0,0,0,0,2.4717,2.4724,2.5106,2.5109,2.5111,2.5314,2.5317,2.532,2.5329,2.5326,2.5323,2.532,2.5535,2.5544,2.5554,0,0,0,0,0,0,0,0,0,0,0,0,0,2.4902,2.4726,2.5106,2.514,2.5145,2.5314,2.5317,2.5321,2.533,2.5326,2.5322,2.5319,2.5532,2.5543,2.5555,2.5704,0,0,2.5592,2.5598,0,0,0,0,0,0,0,0,2.4891,2.4916,2.5133,2.5138,2.5144,2.5292,2.5259,2.545,2.533,2.526,2.5321,2.5317,2.5459,2.5477,2.5524,2.5715,2.5724,2.5593,2.5601,2.5606,2.5609,0,0,0,0,0,0,0,2.4879,2.4907,2.5189,2.5136,2.5143,2.5146,2.5168,2.5295,2.5378,2.5266,2.5267,2.5291,2.5461,2.5512,2.5529,2.5727,2.5593,2.5604,2.5611,2.5616,2.6048,2.6052,0,0,0,0,0,0,2.4859,2.4896,2.5182,2.5195,2.5006,2.5156,2.518,2.5248,2.5376,2.5392,2.5294,2.5291,2.5494,2.5515,2.5537,2.5719,2.5606,2.5617,2.5624,2.6044,2.6049,2.6054,0,0,0,0,0,0,2.485,2.4884,2.5174,2.5046,2.5083,2.5166,2.5242,2.5254,2.5305,2.5398,2.5413,2.5331,2.5491,2.552,2.5662,2.5727,2.5623,2.5634,2.6039,2.6046,2.6052,2.6085,0,0,0,0,0,0,2.4839,2.4881,2.4939,2.5047,2.509,2.5295,2.5246,2.5261,2.5326,2.5323,2.5436,2.5452,2.5491,2.5644,2.5674,2.5741,2.5643,2.6034,2.6042,2.605,2.6078,2.6092,2.6103,0,0,0,0,0,2.4825,2.4941,2.4941,2.4976,2.5163,2.5299,2.5324,2.5366,2.5331,2.5389,2.5448,2.5448,2.5714,2.5658,2.5693,2.5764,2.603,2.604,2.6049,2.6073,2.6089,2.6103,0,0,0,0,0,0,2.4839,2.4956,2.4958,2.5112,2.5195,2.53,2.5376,2.5381,2.5477,2.5471,2.552,2.5545,2.5686,2.574,2.5675,2.5914,2.5868,2.5885,2.5875,2.5891,2.5903,2.5887,2.5653,0,0,0,0,0,2.4859,2.4959,2.5056,2.5183,2.5224,2.5292,2.5353,2.5378,2.5467,2.5503,2.5572,2.5659,2.5762,2.5829,2.5929,2.6085,2.611,2.6152,2.6164,2.6173,2.6188,2.6273,2.6292,2.6085,2.6085,2.6085,0,0,2.4904,2.498,2.504,2.5187,2.5255,2.5357,2.5322,2.5433,2.5509,2.552,2.5658,2.5712,2.5812,2.5961,2.603,2.601,2.625,2.6185,2.6192,2.6202,2.6285,2.6304,2.6322,2.6092,2.609,2.6089,0,0,2.5037,2.5104,2.5216,2.5284,2.5386,2.5431,2.5457,2.5562,2.5597,2.5736,2.5746,2.5837,2.6014,2.6085,2.6144,2.63,2.6303,2.6332,2.6396,2.6479,2.6495,2.651,2.6565,2.6585,2.6345,2.6345,2.6346,0,2.5079,2.5234,2.5274,2.5384,2.5448,2.546,2.5574,2.5638,2.5768,2.5812,2.5786,2.6007,2.6076,2.6241,2.6279,2.6326,2.6358,2.632,2.6489,2.6504,2.6519,2.6572,2.6593,2.6348,2.6348,2.6348,2.6347,0,2.528,2.5387,2.5465,2.5589,2.5662,2.5773,2.583,2.5899,2.5917,2.5963,2.6104,2.6186,2.6302,2.6343,2.6362,2.6511,2.6495,2.6479,2.6434,2.654,2.6592,2.6612,2.6352,2.6351,2.635,2.635,0,0,2.543,2.5572,2.5601,2.5656,2.5768,2.5852,2.5963,2.6075,2.6133,2.6222,2.6316,2.6464,2.6449,2.6516,2.6543,2.6615,2.6733,2.6591,2.6594,2.6614,2.6902,2.6913,2.6936,2.6735,2.6739,2.6743,2.6893,0,2.5575,2.5773,2.5811,2.5983,2.6082,2.6093,2.619,2.627,2.6316,2.6406,2.6457,2.6561,2.6534,2.6574,2.6646,2.6704,2.6792,2.6693,2.6824,2.6828,2.6799,2.6963,2.6977,2.7115,2.6913,2.6917,2.6919,0,2.5772,2.5864,2.6045,2.6142,2.6185,2.6271,2.6376,2.6463,2.6553,2.6581,2.6654,2.6672,2.6788,2.6736,2.6896,2.6828,2.6883,2.6919,2.6926,2.694,2.6881,2.6982,2.716,2.7181,2.6951,2.6949,2.6946,0,2.5862,2.6031,2.6161,2.6208,2.6325,2.6386,2.6437,2.6523,2.6588,2.6679,2.6722,2.6826,2.6883,2.6964,2.7009,2.6967,2.7166,2.7118,2.7192,2.7191,2.7235,2.7232,2.7424,2.727,2.7269,2.7269,2.7268,0,2.6021,2.6132,2.6203,2.6283,2.6407,2.6449,2.6571,2.6622,2.6698,2.6788,2.6804,2.6888,2.6943,2.7035,2.7071,2.7198,2.7224,2.725,2.7258,2.7249,2.7245,2.7286,2.7278,2.7275,2.7273,2.7272,2.7271,0,2.6144,2.6196,2.6339,2.6437,2.6464,2.6551,2.6635,2.6713,2.6758,2.6871,2.69,2.6972,2.708,2.7133,2.7269,2.7293,2.7436,2.7438,2.7406,2.7409,2.7481,2.7474,2.7707,2.774,2.7563,2.7565,2.7566,0,2.6242,2.6327,2.6433,2.6494,2.6547,2.6645,2.671,2.6755,2.6822,2.6929,2.6994,2.7103,2.7193,2.7366,2.743,2.7534,2.7538,2.7613,2.7554,2.7541,2.754,2.7534,2.7542,2.7624,2.7626,2.7627,2.7628,0,2.641,2.6431,2.6524,2.6626,2.6703,2.6786,2.6867,2.6916,2.6973,2.7048,2.7159,2.7228,2.7365,2.7473,2.758,2.7634,2.7641,2.7646,2.7669,2.766,2.7638,2.7651,2.7435,2.7641,2.7639,2.7639,2.7638,2.7637,2.6524,2.66,2.6686,2.6788,2.6853,2.6928,2.7006,2.706,2.7153,2.7267,2.7287,2.7405,2.7491,2.7635,2.7692,2.7784,2.7768,2.7801,2.7809,2.7817,2.782,2.7622,2.7804,2.7804,2.7804,2.7803,2.7803,0,2.6693,2.6748,2.6842,2.6954,2.7035,2.7033,2.7122,2.7189,2.7292,2.7371,2.7458,2.7585,2.7689,2.776,2.7866,2.7926,2.7932,2.7952,2.7949,2.7961,2.783,2.7799,2.7946,2.7946,2.7946,2.7946,2.7946,2.7946,2.6791,2.6918,2.6949,2.7108,2.7163,2.7277,2.7328,2.7397,2.746,2.76,2.7686,2.7731,2.7807,2.7918,2.8013,2.8031,2.807,2.8091,2.8108,2.7985,2.797,2.7956,2.7927,2.8098,2.8099,2.8232,2.8233,2.8234]}]]